Terug naar catalogus

COSMOS 2251 DEB

ActiefVLEO
NORAD 35071·DEBRIS·🇷🇺 Russia

Gelanceerd Jun 16, 1993 vanaf Plesetsk Cosmodrome

Loading…

Volgende Passages (komende 24 uur)

TLE

VerouderendSource: Space-Track

Epoch: Sep 10, 2026, 11:59 UTC

1 35071U 93036AJA 26253.49992605  .00007974  00000-0  48307-3 0  9991
2 35071  73.9329 331.8199 0060153 163.2114 197.1088 15.09194158716290

Volg COSMOS 2251 DEB in realtime met AllMySat

Download on the App Store